Notices

What's New in latest Release from April 7th, 2021:

- Updated Glossary, including Speed of Maximum Gust, and Total Hourly Precipitation

- Updated national and regional climate services offices contacts and prices information

- Addition of station inventory lists for 1981-2010, 1971-2000, and 1961-1990 Normals.

If you haven't already, please take our survey and provide feedback about our website: https://eccc.sondage-survey.ca/f/LanguageSelection.aspx?s=442ca660-fcf1-47c0-95a9-59707d6fd709

Hourly Data Report for November 15, 2020

SHEARWATER RCS
NOVA SCOTIA
Current Station Operator: ECCC - MSC

44°37'47.000" N
63°30'48.000" W
24.00 m
8205092
71264
AAW

Download Data

Hourly Data (November 2020)
Hourly Data Report for November 15, 2020
TIME
LST
Temp Definition
°C
Dew Point Definition
°C
Rel Hum Definition
%
Precip. Amount Definition
mm

Wind Dir Definition
10's deg

Wind Spd Definition
km/h
Visibility Definition
km
Stn Press Definition
kPa
Hmdx Definition


Wind Chill Definition


Weather Definition


00:00 3.4 0.3 80 0.0 31 15   101.23     LegendNANA
01:00 3.8 0.3 78 0.0 31 15   101.31     LegendNANA
02:00 3.5 -0.2 77 0.0 32 19   101.34     LegendNANA
03:00 3.0 -0.3 79 0.0 31 19   101.40     LegendNANA
04:00 2.8 -0.5 79 0.0 32 14   101.47     LegendNANA
05:00 2.5 -0.8 79 0.0 33 12   101.53     LegendNANA
06:00 2.2 -0.6 81 0.0 33 11   101.54     LegendNANA
07:00 1.9 -1.1 81 0.0 32 12   101.72     LegendNANA
08:00 2.1 -0.9 80 0.0 31 8   101.78     LegendNANA
09:00 3.2 -0.3 78 0.0 34 8   101.84     LegendNANA
10:00 3.1 -0.8 76 0.0 34 14   101.88     LegendNANA
11:00 2.5 -4.8 59 0.0 34 18   101.98     LegendNANA
12:00 3.1 -4.3 59 0.0 33 15   101.97     LegendNANA
13:00 3.7 -3.7 58 0.0 31 14   101.97     LegendNANA
14:00 4.7 -5.6 47 0.0 33 11   101.95     LegendNANA
15:00 4.8 -8.3 38 0.0 31 11   102.03     LegendNANA
16:00 3.9 -8.6 39 0.0 1 9   102.04     LegendNANA
17:00 2.3 -6.4 52 0.0 3 5   102.05     LegendNANA
18:00 1.3 -4.8 64 0.0 5 6   102.06     LegendNANA
19:00 1.2 -4.5 66 0.0 3 7   102.07     LegendNANA
20:00 1.5 -4.3 66 0.0 4 7   102.02     LegendNANA
21:00 1.4 -3.6 69 0.0 6 10   101.95     LegendNANA
22:00 2.1 -2.7 70 0.0 7 9   101.91     LegendNANA
23:00 5.0 -1.9 61 0.0 15 20   101.86     LegendNANA

Notes on Data Quality.

Legend

  • E = Estimated
  • M = Missing
  • NA = Not Available*
  • [empty] = Indicates an unobserved value
Date modified: